Location: Bergfeld
(52.0500°N, 11.7833°E)
Time: 04:06:52
(UTC+00:00)

SKYMED 2 - Pass Details

Date: 17 February 2020
Orbit: 621 x 623 km, 97.9° (Epoch: 09 April)

Event Time Altitude Azimuth Distance (km) Brightness Sun altitude
Rises 04:49:04 0° 184° (S) 2,893 7.0 -15.4°
Reaches altitude 10° 04:51:21 10° 191° (SSW) 1,992 6.1 -15.0°
Maximum altitude 04:55:27 41° 262° (W) 916 3.9 -14.4°
Drops below altitude 10° 04:59:35 10° 333° (NNW) 2,008 5.9 -13.8°
Sets 05:01:54 0° 341° (NNW) 2,920 6.8 -13.4°
